Location: Chapel Hill
(35.9134°N, 79.0560°W)
Time: 07:52:58
(UTC-04:00)

ACS3 Solar Sail - Visible Passes

Search period start: 18 June 2024 00:00
Search period end: 28 June 2024 00:00
Orbit: 992 x 1024 km, 97.4° (Epoch: 17 June)

Date Brightness Start Highest point End Pass type
(mag) Time Alt. Az. Time Alt. Az. Time Alt. Az.
18 Jun 5.8 21:57:51 18° ESE 22:01:23 31° ENE 22:06:42 10° N visible
18 Jun 5.9 23:43:11 29° SW 23:45:18 37° W 23:51:01 10° NNW visible
19 Jun 5.0 22:32:38 31° SE 22:35:33 60° ENE 22:41:40 10° N visible
20 Jun 6.7 00:17:59 16° WSW 00:20:01 18° W 00:24:09 10° NW visible
20 Jun 6.6 21:22:52 10° E 21:26:31 16° ENE 21:30:09 10° NNE visible
20 Jun 4.9 23:07:26 38° S 23:09:55 71° W 23:16:09 10° NNW visible
21 Jun 5.8 21:56:53 18° ESE 22:00:30 32° ENE 22:05:53 10° N visible
21 Jun 5.9 23:42:14 28° SW 23:44:28 36° W 23:50:07 10° NNW visible
22 Jun 4.9 22:31:41 31° SE 22:34:42 62° ENE 22:40:49 10° N visible
23 Jun 6.8 00:17:02 15° WSW 00:19:11 17° W 00:23:10 10° NW visible
23 Jun 6.5 21:21:52 10° ESE 21:25:38 17° ENE 21:29:23 10° NNE visible
23 Jun 5.0 23:06:28 37° S 23:09:04 69° W 23:15:17 10° NNW visible
24 Jun 5.7 21:55:56 18° ESE 21:59:38 33° ENE 22:05:03 10° N visible
24 Jun 6.0 23:41:16 26° SW 23:43:37 34° W 23:49:13 10° NNW visible
25 Jun 4.9 22:30:44 30° SE 22:33:50 64° ENE 22:39:58 10° N visible
26 Jun 6.8 00:16:04 14° WSW 00:18:21 17° W 00:22:12 10° NW visible
26 Jun 6.5 21:20:53 10° ESE 21:24:45 17° ENE 21:28:37 10° NNE visible
26 Jun 5.0 23:05:31 35° S 23:08:13 67° W 23:14:24 10° NNW visible
27 Jun 5.7 21:54:58 18° ESE 21:58:46 34° ENE 22:04:13 10° N visible
27 Jun 6.0 23:40:19 25° SW 23:42:46 33° W 23:48:18 10° NNW visible
